Regional Weather Roundup
Issued by NWS

Home | Current Version | Previous Version | Graphics & Text | Print | Product List | Glossary On
Versions: 1 2 3 4 5 6 7 8 9 10 11 12 13 14 15 16 17 18 19 20 21 22 23 24 25 26 27 28
000
ASUS45 KTFX 281410
RWRMT
MONTANA REGIONAL WEATHER ROUNDUP
NATIONAL WEATHER SERVICE GREAT FALLS MT
800 AM MDT THU APR 28 2016

NOTE: "FAIR" INDICATES FEW OR NO CLOUDS BELOW 12000 FEET WITH NO
SIGNIFICANT WEATHER AND/OR OBSTRUCTIONS TO VISIBILITY.

MTZ001>007-043-281500-
WEST OF THE DIVIDE

CITY           SKY/WX    TMP DP  RH WIND       PRES   REMARKS
KALISPELL      CLOUDY    45  34  65 CALM      30.03R
MISSOULA       CLOUDY    43  30  60 SE13      30.02R
BUTTE          LGT SNOW  32  28  85 NW5       29.98R FOG
MULLAN PASS      N/A     31  26  82 VRB3      29.97R
ANACONDA         N/A     34  27  75 NW9G16    30.01R WCI  26
DEER LODGE       N/A     36  27  69 N7        30.03S WCI  30
EUREKA           N/A     37  34  87 CALM      30.06R
HAMILTON         N/A     41  28  60 N9        29.98R
LIBBY            N/A     36  34  93 CALM      30.07R
PLAINS           N/A     40  34  79 CALM      30.02R
$$

MTZ008-052>055-281500-
SOUTHWEST MONTANA

CITY           SKY/WX    TMP DP  RH WIND       PRES   REMARKS
BOZEMAN        LGT SNOW  33  32  96 W6        30.01R FOG     WCI  28
DILLON         LGT SNOW  33  29  85 NE17      29.95R FOG     WCI  22
ENNIS          PTSUNNY   32  30  93 N15       29.99S WCI  22
THREE FORKS      N/A     36  36 100 MISG      30.01R
TWIN BRIDGES     N/A     34  28  79 N16       29.95R WCI  24
$$

MTZ009-010-012-014-046-048-049-054-281500-
EAST SLOPES AND CENTRAL MONTANA

CITY           SKY/WX    TMP DP  RH WIND       PRES   REMARKS
CUT BANK       CLOUDY    33  32  96 SE7       30.14R WCI  27
GREAT FALLS    LGT SNOW  32  31  96 NE8       30.09R VSB 3/4 WCI  25
MALMSTROM AFB  LGT SNOW  32  33 100 NE6       30.11R WCI  27
HELENA         CLOUDY    36  32  85 N7        30.05R WCI  30
CHOTEAU        FOG       32  32 100 NE10      30.11S VSB 1   WCI  24
CONRAD           N/A     33  33 100 N7        30.14R WCI  27
$$

MTZ011-013-016-021-045-047-050-051-281500-
NORTH CENTRAL MONTANA

CITY           SKY/WX    TMP DP  RH WIND       PRES   REMARKS
HAVRE          PTSUNNY   39  35  86 CALM      30.17R
LEWISTOWN      LGT SNOW  33  29  85 E7        30.09S FOG     WCI  27
N BAR RANCH    CLOUDY    30  28  93 CALM      30.11R FOG
CHINOOK          N/A     39  39 100 CALM      30.17R
$$

MTZ017>020-022>027-061-062-281500-
NORTHEAST MONTANA

CITY           SKY/WX    TMP DP  RH WIND       PRES   REMARKS
GLASGOW          N/A     39  32  76 E6        30.13S
JORDAN           N/A     37  35  92 NW12      30.12S WCI  29
SIDNEY           N/A     39  28  65 NE9       30.13S
WOLF POINT       N/A     41  30  65 E8        30.15R
PLENTYWOOD       N/A     37  23  56 NE13      30.15R WCI  29
POPLAR           N/A     37  27  65 NE9       30.15R WCI  31
SCOBEY           N/A     38  19  46 NE6       30.12S
$$

MTZ028>42-056>058-281500-
SOUTHCENTRAL AND SOUTHEAST MONTANA

CITY           SKY/WX    TMP DP  RH WIND       PRES   REMARKS
BAKER          CLOUDY    34  32  92 NW8       30.08R WCI  27
BILLINGS       SNOW      31  31 100 NE10      30.07R VSB 1/2 WCI  22
LIVINGSTON     LGT SNOW  31  27  85 E15       30.02R FOG     WCI  20
MILES CITY     LGT RAIN  37  34  89 N10       30.10S WCI  30
EKALAKA          N/A     32  30  92 NW3       30.02R VSB 1
FORSYTH          N/A     36  36 100 N3        30.11S
LAUREL           N/A     32  27  82 CALM      30.05R VSB 0
ROUNDUP          N/A     32  29  89 CALM      30.00S
$$

REGIONAL REPORTS...DAKOTAS

CITY           SKY/WX    TMP DP  RH WIND       PRES   REMARKS
WILLISTON        N/A     41  25  53 NE9       30.13S
MINOT            N/A     43  22  43 NE7       30.14R
DICKINSON      CLOUDY    35  30  82 NE5       30.05R
BEACH          CLOUDY    36  32  87 NE8       30.11R WCI  29
CROSBY           N/A     39  23  52 E12       30.19S WCI  32
TIOGA            N/A     37  21  52 NE15      30.18F WCI  28
WATFORD CITY     N/A     37  27  65 N5        30.12S
BISMARCK       CLOUDY    40  34  79 CALM      30.09R
GRAND FORKS    CLOUDY    44  23  43 NE12      30.12R
FARGO          CLOUDY    45  27  49 E8        30.06R
BUFFALO SD       N/A     35  32  88 N10       29.98R WCI  27
RAPID CITY     CLOUDY    33  32  96 N9        30.02R FOG     WCI  25
$$

REGIONAL REPORTS...WYOMING/IDAHO/WASHINGTON

CITY           SKY/WX    TMP DP  RH WIND       PRES   REMARKS
GILLETTE       CLOUDY    31  30  96 N9        30.01R FOG     WCI  23
SHERIDAN       CLOUDY    33  31  92 N3        30.05R
BUFFALO WY     CLOUDY    30  28  92 N7        30.01R WCI  23
CODY           CLOUDY    30  27  86 N8        29.99R WCI  23
YELLOWSTONE LA   N/A     28  21  75 VRB5      29.90R
IDAHO FALLS      N/A     38  28  67 N9        29.84R WCI  31
SALMON         CLOUDY    43  28  56 CALM      29.92R
BOISE            N/A     44  38  79 CALM      29.84R
SPOKANE        PTSUNNY   48  40  73 E8        29.98R
$$

REGIONAL REPORTS...ALBERTA

CITY           SKY/WX    TMP DP  RH WIND       PRES   REMARKS
EDMONTON       SUNNY     45  32  61 S5        30.14R
CALGARY        CLOUDY    37  32  81 S12       30.12S FOG     WCI  30
LETHBRIDGE     CLOUDY    37  36  93 S10       30.16R WCI  30
MEDICINE HAT   CLOUDY    41  37  87 N3        30.19S
WATERTON GATE    N/A     34  32  93 N5          N/A
MILK RIVER       N/A     36  34  93 S12         N/A  WCI  27
ONEFOUR          N/A     37  32  81 N5          N/A
$$

REGIONAL REPORTS...SASKATCHEWAN

CITY           SKY/WX    TMP DP  RH WIND       PRES   REMARKS
SWIFT CURRENT  SUNNY     41  28  60 SE3       30.17R
REGINA         CLOUDY    43  21  42 E9        30.22S
SASKATOON      CLOUDY    46  27  46 SE7       30.26R
CYPRESS HILLS    N/A     34  30  86 N6          N/A  WCI  29
VAL MARIE        N/A     39  30  70 NE8         N/A
ROCKGLEN         N/A     37  23  56 NE3         N/A
$$




USA.gov is the U.S. government's official web portal to all federal, state and local government web resources and services.